"Pseudo-MPEC" for C1FQ9Y5

Created 2026 Aug 26 0:35:03 UT using Find_Orb

Click here for an explanation of pseudo-MPECs

 
 Astrometry: 
     C1FQ9Y5*1C2026 08 21.43343900 41 35.156+08 58 15.24   ~8OFo 21.38GVNEOCPV00
     C1FQ9Y5 1C2026 08 21.43842300 41 35.372+08 58 01.96   ~8OFo 21.19GVNEOCPV00
     C1FQ9Y5 1C2026 08 21.44337900 41 35.545+08 57 48.56   ~8OFo 21.37GVNEOCPV00
     C1FQ9Y5 1C2026 08 21.44834200 41 35.754+08 57 35.32   ~8OFo 22.06GVNEOCPV00
     C1FQ9Y5 1C2026 08 21.47334500 41 36.805+08 56 28.03   ~8OFo 20.91GVNEOCPV00
     C1FQ9Y5 1C2026 08 21.47408100 41 36.823+08 56 26.56   ~8OFo 21.16GVNEOCPV00
     C1FQ9Y5 1C2026 08 21.47481900 41 36.820+08 56 25.19   ~8OFo 20.83GVNEOCPV00
     C1FQ9Y5 1C2026 08 21.47555500 41 36.870+08 56 22.34   ~8OFo 21.23GVNEOCPV00

Station data:
(V00) Kitt Peak-Bok  (N31.963125 W111.600190)  US/Arizona. Measurers T.
   Beuden, V. F. Carvajal, D. Fay, J. B. Fazekas, D. C. Fuls, A. R. Gibbs, A.
   D. Grauer, H. Gröller, J. K. Hogan, R. A. Kowalski, S. M. Larson, G. J.
   Leonard, D. Rankin, R. L. Seaman, F. C. Shelly, K. W. Wierzchoś. 2.25-m
   reflector + 4x4K mosaic CCD.

Orbital elements:  C1FQ9Y5
   Perihelion 2026 Jul 3.452505 +/- 68.8 TT = 10:51:36.4 (JD 2461224.952505)
Epoch 2026 Aug 21.0 TT = JDT 2461273.5   Earth MOID: 0.2600   Ju: 0.6421
M   5.926801294 +/- 55              Ma: 0.0288                   AutoNEOCP
n   0.122082536 +/- 0.285           Peri.  130.952109 +/- 120
a   4.024392715 +/- 6.26            Node   164.944607 +/- 5.9
e   0.70581727 +/- 0.245            Incl.   18.064778 +/- 18
P   8.07329                H 21.39  G  0.15   U 11.9  SR
q 1.183906821 +/- 0.498    Q 6.864878608 +/- 4.65         (J2000 ecliptic)
From 8 observations 2026 Aug. 21 (60.6 min); mean residual 0".26
Residuals in arcseconds: 
260821 V00  .03+  .04+    260821 V00  .11-  .05-    260821 V00  .34-  .65+    
260821 V00  .22+  .08+    260821 V00  .33+  .45-    260821 V00  .05-  .23-    
260821 V00  .21-  .08-    260821 V00  .15+  .05+    

Ephemerides (geocentric):
Date (UTC) HH   RA             Dec           delta  r     elong  mag " sig PA
---- --------  ------------   ------------  ------ ------ -----  --- --------
2026 08 26 01  00 44 35.519   +05 34 02.28  .43680 1.3744 140.0 21.5  29d  83
2026 08 26 02  00 44 36.780   +05 32 12.26  .43692 1.3746 140.1 21.5  29d  83
2026 08 26 03  00 44 38.035   +05 30 22.25  .43703 1.3749 140.1 21.5  29d  83
2026 08 26 04  00 44 39.284   +05 28 32.27  .43715 1.3752 140.2 21.5  29d  83
2026 08 26 05  00 44 40.526   +05 26 42.31  .43727 1.3754 140.2 21.5  29d  83
2026 08 26 06  00 44 41.762   +05 24 52.38  .43739 1.3757 140.3 21.5  29d  83
2026 08 26 07  00 44 42.992   +05 23 02.47  .43751 1.3760 140.3 21.5  29d  83
2026 08 26 08  00 44 44.216   +05 21 12.58  .43762 1.3762 140.4 21.5  29d  83
2026 08 26 09  00 44 45.433   +05 19 22.71  .43774 1.3765 140.4 21.5  29d  83
2026 08 26 10  00 44 46.643   +05 17 32.87  .43786 1.3768 140.5 21.5  29d  83
2026 08 26 11  00 44 47.848   +05 15 43.05  .43798 1.3770 140.5 21.5  29d  82
2026 08 26 12  00 44 49.046   +05 13 53.26  .43810 1.3773 140.6 21.5  29d  82
2026 08 26 13  00 44 50.238   +05 12 03.49  .43822 1.3776 140.6 21.5  29d  82
2026 08 26 14  00 44 51.423   +05 10 13.74  .43834 1.3778 140.7 21.5  29d  81
2026 08 26 15  00 44 52.603   +05 08 24.02  .43846 1.3781 140.7 21.5  30d  80
2026 08 26 16  00 44 53.775   +05 06 34.32  .43858 1.3784 140.8 21.5  30d  80
2026 08 26 17  00 44 54.942   +05 04 44.65  .43870 1.3786 140.8 21.5  31d  79
2026 08 26 18  00 44 56.103   +05 02 55.00  .43883 1.3789 140.9 21.5  31d  79
2026 08 26 19  00 44 57.257   +05 01 05.38  .43895 1.3792 140.9 21.5  32d  78
2026 08 26 20  00 44 58.405   +04 59 15.79  .43907 1.3795 140.9 21.5  33d  78
2026 08 26 21  00 44 59.546   +04 57 26.22  .43919 1.3797 141.0 21.5  33d  78
2026 08 26 22  00 45 00.682   +04 55 36.67  .43931 1.3800 141.0 21.5  33d  78
2026 08 26 23  00 45 01.811   +04 53 47.16  .43944 1.3803 141.1 21.5  34d  79
2026 08 27 00  00 45 02.934   +04 51 57.66  .43956 1.3805 141.1 21.5  34d  79
2026 08 27 01  00 45 04.051   +04 50 08.20  .43968 1.3808 141.2 21.5  34d  79
2026 08 27 02  00 45 05.162   +04 48 18.76  .43981 1.3811 141.2 21.5  34d  79
2026 08 27 03  00 45 06.266   +04 46 29.35  .43993 1.3813 141.3 21.5  35d  79
2026 08 27 04  00 45 07.364   +04 44 39.96  .44005 1.3816 141.3 21.5  35d  79
2026 08 27 05  00 45 08.456   +04 42 50.61  .44018 1.3819 141.4 21.5  35d  78
2026 08 27 06  00 45 09.542   +04 41 01.28  .44030 1.3821 141.4 21.5  36d  78
2026 08 27 07  00 45 10.622   +04 39 11.98  .44043 1.3824 141.5 21.5  36d  78
2026 08 27 08  00 45 11.695   +04 37 22.70  .44055 1.3827 141.5 21.5  37d  77
2026 08 27 09  00 45 12.762   +04 35 33.45  .44068 1.3829 141.6 21.5  37d  77
2026 08 27 10  00 45 13.824   +04 33 44.24  .44081 1.3832 141.6 21.5  38d  77
2026 08 27 11  00 45 14.879   +04 31 55.05  .44093 1.3835 141.7 21.5  38d  77
2026 08 27 12  00 45 15.928   +04 30 05.88  .44106 1.3838 141.7 21.5  39d  77
2026 08 27 13  00 45 16.970   +04 28 16.75  .44118 1.3840 141.8 21.5  39d  78
2026 08 27 14  00 45 18.007   +04 26 27.65  .44131 1.3843 141.8 21.5  39d  78
2026 08 27 15  00 45 19.037   +04 24 38.57  .44144 1.3846 141.9 21.5  40d  78
2026 08 27 16  00 45 20.062   +04 22 49.53  .44157 1.3848 141.9 21.5  40d  78
2026 08 27 17  00 45 21.080   +04 21 00.51  .44169 1.3851 142.0 21.5  40d  78
2026 08 27 18  00 45 22.092   +04 19 11.53  .44182 1.3854 142.0 21.5  41d  78
2026 08 27 19  00 45 23.098   +04 17 22.57  .44195 1.3857 142.0 21.5  41d  78
2026 08 27 20  00 45 24.099   +04 15 33.64  .44208 1.3859 142.1 21.5  41d  78
2026 08 27 21  00 45 25.092   +04 13 44.75  .44221 1.3862 142.1 21.5  42d  78
2026 08 27 22  00 45 26.080   +04 11 55.88  .44234 1.3865 142.2 21.5  42d  78
2026 08 27 23  00 45 27.062   +04 10 07.05  .44247 1.3867 142.2 21.5  42d  79
2026 08 28 00  00 45 28.038   +04 08 18.24  .44260 1.3870 142.3 21.5  43d  79